TimeCST,TemperatureF,Dew PointF,Humidity,Sea Level PressureIn,VisibilityMPH,Wind Direction,Wind SpeedMPH,Gust SpeedMPH,PrecipitationIn,Events,Conditions,WindDirDegrees,DateUTC
12:15 AM,46.4,44.6,93,30.18,2.0,ENE,5.8,-,0.01,Rain,Rain,60,2013-01-09 06:15:00
12:35 AM,46.4,44.6,93,30.18,2.5,ENE,5.8,-,0.02,,Light Drizzle,60,2013-01-09 06:35:00
12:55 AM,46.4,44.6,93,30.17,2.0,ENE,8.1,-,0.02,,Overcast,60,2013-01-09 06:55:00
1:15 AM,46.4,44.6,93,30.18,3.0,NE,5.8,-,0.01,,Light Drizzle,50,2013-01-09 07:15:00
1:35 AM,46.4,44.6,93,30.18,3.0,ENE,5.8,-,0.01,,Overcast,60,2013-01-09 07:35:00
1:55 AM,46.4,44.6,93,30.17,2.5,NE,3.5,-,0.01,,Drizzle,40,2013-01-09 07:55:00
2:15 AM,46.4,46.4,100,30.18,3.0,ENE,5.8,-,0.01,,Light Drizzle,70,2013-01-09 08:15:00
2:35 AM,46.4,46.4,100,30.18,1.8,Calm,Calm,-,0.03,,Drizzle,0,2013-01-09 08:35:00
2:55 AM,46.4,46.4,100,30.18,1.8,Calm,Calm,-,0.05,,Drizzle,0,2013-01-09 08:55:00
3:15 AM,46.4,46.4,100,30.19,1.2,North,4.6,-,0.03,,Drizzle,350,2013-01-09 09:15:00
3:35 AM,46.4,46.4,100,30.20,1.8,NNE,3.5,-,0.04,,Light Drizzle,20,2013-01-09 09:35:00
3:55 AM,46.4,46.4,100,30.20,2.0,Calm,Calm,-,0.05,,Light Drizzle,0,2013-01-09 09:55:00
4:15 AM,46.4,46.4,100,30.20,3.0,NNE,4.6,-,0.01,,Light Drizzle,20,2013-01-09 10:15:00
4:35 AM,46.4,46.4,100,30.21,5.0,NNE,5.8,-,0.01,,Overcast,30,2013-01-09 10:35:00
4:55 AM,46.4,46.4,100,30.21,4.0,NNE,4.6,-,0.01,,Overcast,30,2013-01-09 10:55:00
5:15 AM,46.4,46.4,100,30.20,4.0,NNE,4.6,-,N/A,,Overcast,30,2013-01-09 11:15:00
5:35 AM,46.4,46.4,100,30.21,5.0,North,5.8,-,N/A,,Overcast,10,2013-01-09 11:35:00
5:55 AM,46.4,46.4,100,30.21,4.0,NNE,6.9,-,N/A,,Overcast,30,2013-01-09 11:55:00
6:15 AM,46.4,46.4,100,30.23,1.5,NE,5.8,-,N/A,,Overcast,40,2013-01-09 12:15:00
6:35 AM,46.4,46.4,100,30.24,1.8,NE,4.6,-,N/A,,Overcast,40,2013-01-09 12:35:00
6:55 AM,46.4,46.4,100,30.25,1.8,NE,4.6,-,N/A,,Overcast,40,2013-01-09 12:55:00
7:15 AM,48.2,46.4,93,30.25,2.5,NNE,6.9,-,N/A,,Overcast,30,2013-01-09 13:15:00
7:35 AM,48.2,46.4,93,30.26,3.0,NNE,5.8,-,N/A,,Overcast,20,2013-01-09 13:35:00
7:55 AM,50.0,46.4,87,30.27,3.0,NNE,6.9,-,N/A,,Overcast,30,2013-01-09 13:55:00
8:15 AM,50.0,48.2,94,30.27,5.0,NNE,8.1,-,N/A,,Overcast,30,2013-01-09 14:15:00
8:35 AM,50.0,48.2,94,30.28,3.0,NE,8.1,-,N/A,,Overcast,50,2013-01-09 14:35:00
8:55 AM,50.0,48.2,94,30.28,5.0,NE,9.2,-,N/A,,Overcast,40,2013-01-09 14:55:00
9:15 AM,50.0,48.2,94,30.28,3.0,NE,8.1,-,N/A,,Overcast,40,2013-01-09 15:15:00
9:35 AM,50.0,48.2,94,30.29,4.0,NE,8.1,-,N/A,,Overcast,50,2013-01-09 15:35:00
9:55 AM,50.0,50.0,100,30.29,5.0,NE,9.2,-,N/A,,Overcast,50,2013-01-09 15:55:00
10:15 AM,51.8,50.0,94,30.30,4.0,NE,5.8,-,N/A,,Overcast,50,2013-01-09 16:15:00
10:35 AM,51.8,50.0,94,30.30,5.0,NE,6.9,-,N/A,,Overcast,50,2013-01-09 16:35:00
10:55 AM,51.8,48.2,88,30.30,7.0,NE,9.2,-,N/A,,Overcast,40,2013-01-09 16:55:00
11:15 AM,51.8,50.0,94,30.29,7.0,NE,9.2,-,N/A,,Overcast,40,2013-01-09 17:15:00
11:55 AM,53.6,48.2,82,30.27,10.0,NE,9.2,-,N/A,,Overcast,50,2013-01-09 17:55:00
12:15 PM,53.6,48.2,82,30.26,10.0,NE,11.5,-,N/A,,Overcast,50,2013-01-09 18:15:00
12:35 PM,53.6,46.4,77,30.25,10.0,NE,12.7,-,N/A,,Overcast,40,2013-01-09 18:35:00
12:55 PM,53.6,46.4,77,30.25,10.0,NE,12.7,-,N/A,,Overcast,40,2013-01-09 18:55:00
1:15 PM,53.6,46.4,77,30.25,10.0,NE,13.8,19.6,N/A,,Overcast,40,2013-01-09 19:15:00
1:35 PM,53.6,46.4,77,30.23,10.0,NE,11.5,-,N/A,,Overcast,40,2013-01-09 19:35:00
1:55 PM,53.6,46.4,77,30.23,10.0,NE,12.7,19.6,N/A,,Overcast,40,2013-01-09 19:55:00
2:15 PM,55.4,46.4,72,30.22,10.0,NE,13.8,-,N/A,,Mostly Cloudy,40,2013-01-09 20:15:00
2:35 PM,53.6,46.4,77,30.22,10.0,NE,12.7,18.4,N/A,,Overcast,50,2013-01-09 20:35:00
2:55 PM,55.4,46.4,72,30.22,10.0,NE,10.4,19.6,N/A,,Overcast,40,2013-01-09 20:55:00
3:15 PM,55.4,46.4,72,30.22,10.0,NE,12.7,19.6,N/A,,Overcast,40,2013-01-09 21:15:00
3:35 PM,55.4,46.4,72,30.22,10.0,NE,13.8,-,N/A,,Overcast,40,2013-01-09 21:35:00
3:55 PM,53.6,46.4,77,30.23,10.0,NE,10.4,-,N/A,,Overcast,40,2013-01-09 21:55:00
4:15 PM,53.6,46.4,77,30.23,10.0,NE,9.2,-,N/A,,Overcast,50,2013-01-09 22:15:00
4:35 PM,53.6,46.4,77,30.22,10.0,NE,10.4,-,N/A,Rain,Light Rain,40,2013-01-09 22:35:00
4:55 PM,53.6,46.4,77,30.22,10.0,NE,10.4,-,N/A,Rain,Rain,40,2013-01-09 22:55:00
5:15 PM,51.8,46.4,82,30.22,10.0,NE,9.2,-,N/A,,Light Drizzle,40,2013-01-09 23:15:00
5:35 PM,51.8,46.4,82,30.21,10.0,NE,9.2,-,N/A,,Drizzle,40,2013-01-09 23:35:00
5:55 PM,51.8,46.4,82,30.20,10.0,NNE,10.4,-,0.01,,Light Drizzle,20,2013-01-09 23:55:00
6:15 PM,51.8,46.4,82,30.20,10.0,NE,10.4,-,N/A,,Overcast,40,2013-01-10 00:15:00
6:35 PM,51.8,46.4,82,30.20,10.0,NE,9.2,-,N/A,,Mostly Cloudy,50,2013-01-10 00:35:00
6:55 PM,51.8,46.4,82,30.21,10.0,NE,6.9,-,N/A,,Overcast,50,2013-01-10 00:55:00
7:15 PM,51.8,46.4,82,30.21,10.0,ENE,6.9,-,N/A,,Drizzle,60,2013-01-10 01:15:00
7:35 PM,51.8,46.4,82,30.21,7.0,ENE,6.9,-,N/A,Rain,Light Rain,70,2013-01-10 01:35:00
7:55 PM,51.8,46.4,82,30.21,10.0,ENE,6.9,-,0.01,,Drizzle,60,2013-01-10 01:55:00
8:15 PM,51.8,46.4,82,30.20,10.0,NE,6.9,-,N/A,,Drizzle,50,2013-01-10 02:15:00
8:35 PM,50.0,46.4,87,30.19,10.0,NE,5.8,-,N/A,,Light Drizzle,50,2013-01-10 02:35:00
8:55 PM,51.8,46.4,82,30.18,10.0,NE,6.9,-,N/A,,Scattered Clouds,50,2013-01-10 02:55:00
9:15 PM,51.8,46.4,82,30.17,10.0,NE,8.1,-,N/A,,Mostly Cloudy,40,2013-01-10 03:15:00
9:35 PM,51.8,46.4,82,30.16,10.0,NE,8.1,-,N/A,,Overcast,40,2013-01-10 03:35:00
9:55 PM,51.8,46.4,82,30.16,10.0,ENE,5.8,-,N/A,,Overcast,60,2013-01-10 03:55:00
10:15 PM,51.8,46.4,82,30.17,10.0,East,4.6,-,N/A,,Overcast,80,2013-01-10 04:15:00
10:35 PM,51.8,46.4,82,30.17,10.0,ESE,4.6,-,N/A,Rain,Light Rain,110,2013-01-10 04:35:00
10:55 PM,50.0,46.4,87,30.16,5.0,ENE,6.9,-,0.02,Rain,Light Rain,70,2013-01-10 04:55:00
11:15 PM,50.0,46.4,87,30.15,7.0,ENE,6.9,-,N/A,,Light Drizzle,60,2013-01-10 05:15:00
11:35 PM,50.0,46.4,87,30.14,5.0,NE,6.9,-,0.01,,Light Drizzle,50,2013-01-10 05:35:00
11:55 PM,50.0,46.4,87,30.12,7.0,NE,9.2,-,0.01,Rain,Light Rain,50,2013-01-10 05:55:00